Satellite: FENGYUN1 Catalog number: 25730 Epoch time: 06256.56830117 Element set: 0824 Inclination: 098.6339 deg RA of node: 245.8003 deg Eccentricity: 0.0013553 Arg of perigee: 249.6214 deg Mean anomaly: 110.3486 deg Mean motion: 14.11815045 rev/day Decay rate: -1.55e-06 rev/day^2 Epoch rev: 37848 Checksum: 291
Satellite: OKEAN-0 Catalog number: 25860 Epoch time: 06257.71961215 Element set: 851 Inclination: 097.7334 deg RA of node: 267.8813 deg Eccentricity: 0.0001139 Arg of perigee: 109.5682 deg Mean anomaly: 250.5637 deg Mean motion: 14.73388402 rev/day Decay rate: 6.6e-07 rev/day^2 Epoch rev: 38493 Checksum: 318
Satellite: NOAA-16 Catalog number: 26536 Epoch time: 06257.40736431 Element set: 41 Inclination: 099.0768 deg RA of node: 225.1152 deg Eccentricity: 0.0009820 Arg of perigee: 228.1535 deg Mean anomaly: 131.8827 deg Mean motion: 14.12368201 rev/day Decay rate: 1.17e-06 rev/day^2 Epoch rev: 30817 Checksum: 280
Satellite: NOAA-17 Catalog number: 27453 Epoch time: 06257.34958493 Element set: 60 Inclination: 098.6146 deg RA of node: 327.8020 deg Eccentricity: 0.0011963 Arg of perigee: 172.6023 deg Mean anomaly: 187.5331 deg Mean motion: 14.23808893 rev/day Decay rate: 4.1e-07 rev/day^2 Epoch rev: 21946 Checksum: 309
Satellite: NOAA-18 Catalog number: 28654 Epoch time: 06257.27306514 Element set: 633 Inclination: 098.7929 deg RA of node: 198.6633 deg Eccentricity: 0.0014444 Arg of perigee: 333.1372 deg Mean anomaly: 026.9061 deg Mean motion: 14.10989408 rev/day Decay rate: -2.0e-08 rev/day^2 Epoch rev: 6794 Checksum: 322
/EX SB KEPS @ AMSAT $ORB06257.M Orbital Elements 06257.MISC
HR AMSAT ORBITAL ELEMENTS FOR MANNED AND MISCELLANEOUS SATELLITES FROM WA5QGD FORT WORTH,TX September 14, 2006 Send SUBSCRIBE KEPS/UNSUBSCRIBE KEPS to majordomo@amsat.org only BID: ORB06257.M TO ALL RADIO AMATEURS BT
Satellite: HUBBLE Catalog number: 20580 Epoch time: 06256.91697540 Element set: 0718 Inclination: 028.4683 deg RA of node: 191.4537 deg Eccentricity: 0.0003462 Arg of perigee: 049.8085 deg Mean anomaly: 310.2805 deg Mean motion: 15.00092115 rev/day Decay rate: 4.79e-06 rev/day^2 Epoch rev: 69843 Checksum: 303
Satellite: UARS Catalog number: 21701 Epoch time: 06256.94347896 Element set: 0870 Inclination: 056.9753 deg RA of node: 069.6512 deg Eccentricity: 0.0103057 Arg of perigee: 023.4210 deg Mean anomaly: 337.1497 deg Mean motion: 15.44592314 rev/day Decay rate: 5.854e-05 rev/day^2 Epoch rev: 82301 Checksum: 303
Satellite: PO-34 Catalog number: 25520 Epoch time: 06256.91341224 Element set: 0572 Inclination: 028.4598 deg RA of node: 157.5438 deg Eccentricity: 0.0005596 Arg of perigee: 126.8216 deg Mean anomaly: 233.2889 deg Mean motion: 15.16787528 rev/day Decay rate: 6.62e-06 rev/day^2 Epoch rev: 43553 Checksum: 329
Satellite: ISS Catalog number: 25544 Epoch time: 06257.97699067 Element set: 666 Inclination: 051.6336 deg RA of node: 084.9179 deg Eccentricity: 0.0011192 Arg of perigee: 340.6475 deg Mean anomaly: 182.4049 deg Mean motion: 15.75721226 rev/day Decay rate: -5.1403e-04 rev/day^2 Epoch rev: 44732 Checksum: 323
Satellite: OO-38 Catalog number: 26063 Epoch time: 06257.77106238 Element set: 717 Inclination: 100.1918 deg RA of node: 204.9522 deg Eccentricity: 0.0036630 Arg of perigee: 214.7437 deg Mean anomaly: 145.1349 deg Mean motion: 14.35776694 rev/day Decay rate: -4.0e-08 rev/day^2 Epoch rev: 34752 Checksum: 304
Satellite: NO-45 Catalog number: 26932 Epoch time: 06256.93917430 Element set: 0427 Inclination: 067.0538 deg RA of node: 138.7939 deg Eccentricity: 0.0006978 Arg of perigee: 236.4921 deg Mean anomaly: 123.5513 deg Mean motion: 14.29534848 rev/day Decay rate: -4.0e-08 rev/day^2 Epoch rev: 25865 Checksum: 336
Satellite: UWE-1 Catalog number: 28892 Epoch time: 06257.67142603 Element set: 551 Inclination: 098.1505 deg RA of node: 154.3915 deg Eccentricity: 0.0016352 Arg of perigee: 252.7627 deg Mean anomaly: 107.1782 deg Mean motion: 14.59394471 rev/day Decay rate: 1.57e-06 rev/day^2 Epoch rev: 4702 Checksum: 303
Satellite: CO-58 Catalog number: 28895 Epoch time: 06256.69957866 Element set: 0535 Inclination: 098.1518 deg RA of node: 153.5469 deg Eccentricity: 0.0016859 Arg of perigee: 256.8198 deg Mean anomaly: 103.1116 deg Mean motion: 14.59445177 rev/day Decay rate: 2.84e-06 rev/day^2 Epoch rev: 04676 Checksum: 373
Satellite: NCUBE2 Catalog number: 28897 Epoch time: 06256.66743442 Element set: 0119 Inclination: 098.1519 deg RA of node: 153.4941 deg Eccentricity: 0.0016387 Arg of perigee: 258.4331 deg Mean anomaly: 101.5028 deg Mean motion: 14.59600620 rev/day Decay rate: 1.41e-06 rev/day^2 Epoch rev: 03903 Checksum: 293
/EX
participants (1)
-
Ray Hoad